Regional Weather Roundup
Issued by NWS

Home | Current Version | Previous Version | Graphics & Text | Print | Product List | Glossary Off
Versions: 1 2 3 4 5 6 7 8 9 10 11 12 13 14 15 16 17 18 19 20 21 22 23 24 25 26 27 28 29 30 31 32 33 34 35 36 37 38 39 40 41 42 43 44 45 46 47 48 49 50

000
ASUS43 KTOP 260808
RWRKS

WEATHER ROUNDUP FOR KANSAS
NATIONAL WEATHER SERVICE GOODLAND KS
300 AM CDT WED JUL 26 2017

NOTE:  "FAIR" INDICATES FEW OR NO CLOUDS BELOW 12,000 FEET WITH NO
SIGNIFICANT WEATHER AND/OR OBSTRUCTIONS TO VISIBILITY.

KSZ001>006-013>018-027>032-041>047-260900-
NORTHWEST KANSAS

CITY           SKY/WX    TMP DP  RH WIND       PRES   REMARKS
GOODLAND       CLOUDY    73  62  68 W8        29.97S
HAYS           CLOUDY    84  68  58 S21       29.92S
HILL CITY      CLOUDY    84  66  54 S16G26    29.90S
RUSSELL        CLOUDY    84  66  54 S20G25    29.91S
$$

KSZ061>065-074>080-084>089-260900-
SOUTHWEST KANSAS

CITY           SKY/WX    TMP DP  RH WIND       PRES   REMARKS
DODGE CITY     CLOUDY    81  67  62 S18G26    29.97F
ELKHART          N/A     74  51  44 S12         N/A
GARDEN CITY    CLOUDY    80  64  58 S15       29.96F
GREAT BEND     PTCLDY    82  68  62 S17G24    29.94F
LIBERAL        CLOUDY    81  63  54 S18       30.00F
PRATT          PTCLDY    79  65  63 S16       29.98F
$$

KSZ066>073-081>083-090>101-260900-
SOUTHEAST KANSAS

CITY           SKY/WX    TMP DP  RH WIND       PRES   REMARKS
CHANUTE        CLEAR     80  73  79 S8        30.03S
COFFEYVILLE    CLEAR     78  74  87 S6        30.03S
HUTCHINSON     PTCLDY    84  71  65 S16G25    29.96F
MEDICINE LODGE   N/A     82  68  62 S10       29.97F
NEWTON         PTCLDY    80  72  76 S15       29.99F
PARSONS        CLEAR     79  73  82 S6        30.03F
WICHITA INTL   PTCLDY    82  73  74 S14       29.98F
WICHITA JABRA  CLEAR     81  72  74 S14       29.99F
WICHITA MCCONL CLEAR     81  71  71 S14       29.99F
WINFIELD       CLEAR     81  72  74 S13       30.01F
$$

KSZ007>012-019>026-033>040-048>060-102>105-260900-
NORTHEAST KANSAS

CITY           SKY/WX    TMP DP  RH WIND       PRES   REMARKS
CONCORDIA      CLOUDY    81  70  69 S13       29.92F
EMPORIA        CLEAR     78  71  79 S15       30.00F
LAWRENCE       CLOUDY    76  73  91 E8        29.99F
MANHATTAN      PTCLDY    82  72  71 S8        29.95F
MARYSVILLE     CLOUDY    81  70  69 S8        29.96R
OLATHE IND     CLOUDY    78  73  84 S7        30.03F
OLATHE EXE     PTCLDY    76  74  93 S6        30.03F
SALINA         PTCLDY    86  70  58 S16G29    29.93S
TOPEKA BILLARD PTCLDY    80  73  79 S8        29.98F
TOPEKA FORBES  PTCLDY    79  73  82 S8        29.99F
$$




USA.gov is the U.S. government's official web portal to all federal, state and local government web resources and services.